Home   Weather   Penza   Past weeks

Flag for Russia Past Weather in Penza, Russia — Yesterday and Last 2 Weeks

Now
16 °F

Light snow. Mostly cloudy.


Feels Like: 5 °F
Forecast: 14 / 22 °F
Wind: 8 mph from Southwest

Location: Saratov / Tsentralny

Current Time: Dec 8, 2016 at 5:36:04 pm

Latest Report: Dec 8, 2016 at 5:00 pm


Visibility: 3 mi

Pressure: 29.80 "Hg

Humidity: 79%

Dew Point: 10 °F

Location of PenzaLocation

Past Weather in Penza — Graph

°F

Penza Temperature Yesterday

Maximum temperature yesterday: 23 °F (at 12:00 am)
Minimum temperature yesterday: 1 °F (at 11:00 pm)
Average temperature yesterday: 9 °F

High & Low Weather Summary for the Past Weeks

 TemperatureHumidityPressure
High41 °F (Nov 28, 5:00 pm)100% (Nov 24, 8:00 pm)30.80 "Hg (Nov 24, 8:00 pm)
Low1 °F (Dec 7, 11:00 pm)50% (Nov 23, 7:00 pm)29.53 "Hg (Nov 28, 12:00 pm)
Average22 °F80%29.92 "Hg
* Reported Nov 23 4:00 pm — Dec 8 4:30 pm, Penza, Weather by CustomWeather, © 2016

Note: Actual official high and low records may vary slightly from our data, if they occured in-between our weather recording intervals... More about our weather records

Advertising

Penza Weather History for the Previous 24 Hours

Scroll right to see more
 ConditionsComfort  
Time TempWeatherWind HumidityBarometerVisibility
4:30 pm
Thu, Dec 8
14 °FLight snow. Mostly cloudy.10 mph79%29.83 "Hg4 mi
4:00 pm14 °FLight snow. Overcast.8 mph79%29.83 "Hg2 mi
3:30 pm14 °FLight snow. Overcast.8 mph79%29.86 "Hg2 mi
3:00 pm14 °FLight snow. Mostly cloudy.8 mph79%29.86 "Hg1 mi
2:30 pm12 °FLight snow. Mostly cloudy.6 mph79%29.89 "Hg1 mi
2:00 pm12 °FLight snow. Mostly cloudy.8 mph79%29.89 "Hg1 mi
1:30 pm10 °FLight snow. Mostly cloudy.10 mph72%29.92 "Hg2 mi
1:00 pm10 °FLight snow. Mostly cloudy.13 mph72%29.92 "Hg2 mi
12:30 pm10 °FLight snow. Mostly cloudy.15 mph72%29.95 "Hg1 mi
12:00 pm10 °FLight snow. Mostly cloudy.15 mph72%29.95 "Hg2 mi
11:30 am9 °FMostly cloudy.10 mph72%29.98 "HgN/A
11:00 am9 °FBroken clouds.10 mph72%29.98 "HgN/A
10:30 am9 °FSunny.10 mph66%30.01 "Hg10 mi
10:00 am9 °FSunny.10 mph66%30.01 "Hg10 mi
9:30 am9 °FSunny.10 mph66%30.04 "Hg10 mi
9:00 am9 °FSunny.8 mph66%30.04 "Hg10 mi
8:30 am7 °FSunny.8 mph72%30.04 "Hg10 mi
8:00 am7 °FSunny.8 mph72%30.04 "Hg10 mi
7:30 am9 °FClear.8 mph72%30.04 "Hg10 mi
7:00 am9 °FClear.10 mph72%30.04 "Hg10 mi
6:30 am9 °FClear.13 mph78%30.07 "Hg10 mi
5:30 am5 °FClear.8 mph78%30.09 "Hg10 mi
4:30 am3 °FClear.13 mph85%30.09 "Hg10 mi
4:00 am3 °FClear.13 mph85%30.09 "Hg10 mi
3:30 am3 °FClear.8 mph85%30.09 "Hg10 mi
3:00 am3 °FClear.13 mph85%30.09 "Hg10 mi
2:00 am3 °FPassing clouds.13 mph72%30.09 "HgN/A
1:00 am1 °FPassing clouds.13 mph78%30.09 "HgN/A
12:00 am1 °FPassing clouds.13 mph78%30.09 "HgN/A
11:00 pm
Wed, Dec 7
1 °FPassing clouds.10 mph78%30.07 "HgN/A
10:30 pm3 °FPassing clouds.10 mph72%30.07 "HgN/A
10:00 pm3 °FPassing clouds.10 mph72%30.04 "HgN/A
9:30 pm3 °FPassing clouds.10 mph66%30.04 "HgN/A
9:00 pm3 °FPassing clouds.10 mph66%30.04 "HgN/A
8:30 pm3 °FPassing clouds.10 mph72%30.04 "HgN/A
8:00 pm3 °FPassing clouds.8 mph72%30.04 "HgN/A
7:30 pm3 °FPassing clouds.10 mph72%30.01 "HgN/A
7:00 pm3 °FPassing clouds.13 mph72%30.01 "HgN/A
6:30 pm3 °FPassing clouds.13 mph72%29.98 "HgN/A
6:00 pm3 °FPassing clouds.13 mph72%29.98 "HgN/A
5:30 pm5 °FPassing clouds.8 mph60%29.98 "HgN/A
5:00 pm5 °FPassing clouds.8 mph60%29.98 "HgN/A
Weather by CustomWeather, © 2016

See weather overviewHow to use our weather pages